Location: Chippewa Lake
(41.0698°N, 81.9010°W)
Time: 21:52:16
(UTC+00:00)

ARIANE 5 R/B - Pass Details

Date: 09 May 2021
Orbit: 748 x 795 km, 98.7° (Epoch: 16 June)

Event Time Altitude Azimuth Distance (km) Brightness Sun altitude
Rises 09:13:36 0° 6° (N) 3,285 6.4 -11.0°
Reaches altitude 10° 09:16:02 10° 0° (N) 2,345 5.5 -10.6°
Maximum altitude 09:20:53 43° 290° (WNW) 1,081 3.0 -9.8°
Enters shadow 09:25:39 10° 220° (SW) 2,298 4.4 -9.1°
